STARLINK-35199

Last updated on Mon Oct 20 2025 00:02:07 GMT+0000 (Coordinated Universal Time)

1 65858U 25223E 25292.25002315 -.01908973 00000+0 -21817-1 0 9992 2 65858 53.1596 234.9992 0001201 86.0285 13.1482 15.64691245 3739
UTC large
Height (km)
Speed (km/s)
/
Latitude / Longitude
Inclination (degrees)
Orbital Period (minutes)
Azimuth
Elevation
Range (km)
Doppler Factor

Next 0 passes for location: London (51.5072 / 0.1276)

Sorry there are no passes over London.